Volver al catálogo

STARLINK-6104

ActivoComunicacionesVLEO
NORAD 56127·PAYLOAD·🇺🇸 United States

Lanzado Mar 29, 2023 desde Cape Canaveral Space Force Station

Loading…

Próximos Pases (próximas 24 horas)

TLE

ActualizadoSource: CelesTrak SupGP

Época: Sep 14, 2026, 20:56 UTC

1 56127C 23046AL  26257.87270833 -.00043605  00000+0 -15793-2 0  2579
2 56127  43.0017 161.8790 0001442 266.9379 127.1357 15.27601454    15

Sigue STARLINK-6104 en tiempo real con AllMySat

Download on the App Store